JA1RBY-13 Weather Reports


time (UTC)temp
C
wind
direction
speed
KPH
gust
KPH
rain 1hr
cm
rain 24hr
cm
rain mn
cm
humidity
%
barometer
mb
20260502192136 15 53 3.2 4.8 0.00 0.00 0.00 52 1012.5
20260502190635 16 44 4.8 6.4 0.00 0.00 0.00 52 1012.7
20260502182135 15 19 1.6 4.8 0.00 0.00 0.00 53 1012.3
20260502180636 15 17 1.6 6.4 0.00 0.00 0.00 53 1012.2
20260502163636 15 8 3.2 6.4 0.00 0.00 0.00 56 1012.4
20260502162137 15 11 4.8 6.4 0.00 0.00 0.00 55 1012.4
20260502160636 15 15 1.6 4.8 0.00 0.00 0.00 57 1012.3
20260502130637 17 0 0.0 4.8 0.00 0.00 0.00 52 1012.4
20260502123635 17 264 0.0 0.0 0.00 0.00 0.00 49 1012.6
20260502122137 17 250 0.0 0.0 0.00 0.00 0.00 48 1011.9
20260502120637 18 250 0.0 0.0 0.00 0.00 0.00 47 1011.8
20260502115137 18 250 0.0 0.0 0.00 0.00 0.00 45 1011.6
20260502113637 18 250 0.0 0.0 0.00 0.00 0.00 43 1011.4
20260502112136 18 250 0.0 0.0 0.00 0.00 0.00 41 1011.1
20260502110636 19 250 0.0 0.0 0.00 0.00 0.00 40 1010.7
20260502103637 20 250 0.0 0.0 0.00 0.00 0.00 35 1010.4
20260502102137 20 250 0.0 0.0 0.00 0.00 0.00 33 1010.2
20260502090636 23 236 4.8 8.0 0.00 0.00 0.00 24 1009.4
20260502065136 25 207 1.6 4.8 0.00 0.00 0.00 27 1007.6
20260502062137 25 227 4.8 8.0 0.00 0.00 0.00 28 1007.2
20260502055137 25 169 8.0 16.1 0.00 0.00 0.00 26 1007.0
20260502053636 25 186 11.3 16.1 0.00 0.00 0.00 25 1006.8
20260502052136 25 240 14.5 19.3 0.00 0.00 0.00 25 1006.8
20260502050636 25 219 11.3 19.3 0.00 0.00 0.00 29 1006.8
20260502045136 25 198 12.9 20.9 0.00 0.00 0.00 30 1006.4
20260502042136 25 232 11.3 14.5 0.00 0.00 0.00 34 1006.2
20260502040636 25 180 9.7 14.5 0.00 0.00 0.00 35 1006.2
20260502035136 25 223 6.4 16.1 0.00 0.03 0.00 32 1006.3
20260502033637 25 224 12.9 22.5 0.00 0.08 0.00 34 1006.1
20260502030636 26 194 9.7 16.1 0.00 0.13 0.00 25 1005.6
20260502025136 26 234 9.7 20.9 0.00 0.13 0.00 32 1005.6
20260502023636 27 164 11.3 16.1 0.00 0.18 0.00 29 1005.3
20260502022136 27 149 3.2 4.8 0.00 0.30 0.00 27 1005.1
20260502015137 25 141 6.4 9.7 0.00 0.33 0.00 30 1005.0
20260502013637 25 147 6.4 12.9 0.00 0.33 0.00 30 1004.7
20260502012136 26 175 6.4 6.4 0.00 0.61 0.00 31 1004.6
20260502005136 25 154 3.2 3.2 0.00 0.66 0.00 33 1004.3
20260502003637 25 227 6.4 9.7 0.00 0.71 0.00 34 1004.4
20260502000636 23 225 4.8 8.0 0.00 0.99 0.00 39 1004.3
20260501235139 22 233 8.0 11.3 0.00 1.09 0.00 41 1004.2
20260501233636 22 204 4.8 9.7 0.00 1.17 0.00 46 1004.2
20260501225136 21 214 4.8 6.4 0.00 1.42 0.00 47 1003.8
20260501223636 20 250 6.4 12.9 0.00 1.50 0.00 48 1003.6
20260501220636 17 221 0.0 0.0 0.00 1.55 0.00 53 1003.1
20260501215138 16 229 0.0 0.0 0.00 1.65 0.00 55 1003.1
20260501210636 13 13 0.0 0.0 0.00 1.93 0.00 62 1001.4
20260501205138 12 47 1.6 3.2 0.00 1.93 0.00 64 1001.0
20260501202137 11 31 3.2 6.4 0.00 1.93 0.00 65 1000.4
20260501200637 11 4 1.6 4.8 0.00 1.98 0.00 67 1000.4